TimePST,TemperatureF,Dew PointF,Humidity,Sea Level PressureIn,VisibilityMPH,Wind Direction,Wind SpeedMPH,Gust SpeedMPH,PrecipitationIn,Events,Conditions,WindDirDegrees,DateUTC
12:51 AM,70.0,19.9,15,30.08,10.0,NW,6.9,-,N/A,,Clear,320,2013-11-12 08:51:00
1:51 AM,71.1,27.0,19,30.08,10.0,NW,6.9,-,N/A,,Clear,310,2013-11-12 09:51:00
2:51 AM,70.0,28.9,22,30.08,10.0,WNW,6.9,-,N/A,,Clear,300,2013-11-12 10:51:00
3:51 AM,71.1,28.0,20,30.08,10.0,NW,4.6,-,N/A,,Clear,310,2013-11-12 11:51:00
4:51 AM,72.0,26.1,18,30.08,10.0,WNW,6.9,-,N/A,,Clear,290,2013-11-12 12:51:00
5:51 AM,70.0,28.0,21,30.09,10.0,NNW,6.9,-,N/A,,Clear,330,2013-11-12 13:51:00
6:51 AM,69.1,26.1,20,30.12,10.0,West,9.2,-,N/A,,Clear,260,2013-11-12 14:51:00
7:51 AM,70.0,28.0,21,30.15,10.0,WSW,4.6,-,N/A,,Clear,250,2013-11-12 15:51:00
8:51 AM,72.0,28.9,20,30.15,10.0,North,9.2,-,N/A,,Clear,360,2013-11-12 16:51:00
9:51 AM,71.1,30.0,22,30.15,10.0,North,6.9,-,N/A,,Clear,350,2013-11-12 17:51:00
10:51 AM,73.9,28.0,18,30.12,10.0,Calm,Calm,-,N/A,,Clear,0,2013-11-12 18:51:00
11:51 AM,75.9,23.0,14,30.10,10.0,West,9.2,-,N/A,,Clear,260,2013-11-12 19:51:00
12:51 PM,78.1,25.0,14,30.07,10.0,Calm,Calm,-,N/A,,Clear,0,2013-11-12 20:51:00
1:51 PM,78.1,28.9,17,30.06,10.0,WNW,4.6,-,N/A,,Clear,300,2013-11-12 21:51:00
2:51 PM,78.1,28.9,17,30.06,10.0,WNW,5.8,-,N/A,,Clear,300,2013-11-12 22:51:00
3:51 PM,75.9,26.1,16,30.05,10.0,NNW,6.9,-,N/A,,Clear,340,2013-11-12 23:51:00
4:51 PM,75.0,23.0,14,30.04,10.0,NNW,6.9,-,N/A,,Clear,340,2013-11-13 00:51:00
5:51 PM,70.0,30.0,23,30.07,10.0,NW,12.7,-,N/A,,Clear,320,2013-11-13 01:51:00
6:51 PM,71.1,28.9,21,30.07,10.0,NW,11.5,-,N/A,,Clear,310,2013-11-13 02:51:00
7:51 PM,72.0,27.0,19,30.07,10.0,NW,13.8,-,N/A,,Clear,310,2013-11-13 03:51:00
8:51 PM,72.0,28.9,20,30.07,10.0,NW,13.8,-,N/A,,Clear,310,2013-11-13 04:51:00
9:51 PM,72.0,30.0,21,30.07,10.0,NW,9.2,-,N/A,,Clear,310,2013-11-13 05:51:00
10:51 PM,75.0,21.9,14,30.05,10.0,NW,6.9,-,N/A,,Clear,320,2013-11-13 06:51:00
11:51 PM,75.0,24.1,15,30.04,10.0,North,8.1,-,N/A,,Clear,350,2013-11-13 07:51:00